Starlink 1585

operational
NORAD ID: 46117 Int'l Des: 2020-057 Owner: SPXS Country: US Constellation: starlink
LEOCIRCULARSTARLINK_TYPE

Starlink 1585について

説明を読み込み中...

リアルタイム位置

3D地球を読み込み中...

次回通過

高度履歴

Altitude vs Time

uPlot chart will show altitude changes over time

軌道要素

1 46117U 20057A 25352.27920908 .00106389 00000-0 18259-2 0 9991
2 46117 53.0531 286.6088 0012685 83.4395 276.8057 15.50278754294295
Epoch: Dec 18, 2025 • Age: 11 hours

現在のステータス

高度 413.2 km
速度 7.67 km/s
衛星直下点 51.02°N, 3.51°W
打ち上げ日 Aug 18, 2020
運用期間 5.3 years
タイプ internet

技術仕様

分類 Payload
質量 260.00 kg
乾燥質量 248.00 kg
総質量 260.00 kg
長さ 0.20 m
直径 2.80 m
スパン 9.00 m
形状 Box + pan
製造者 SPXS
バスタイプ Starlink
フェーズステータス In Orbit
所有者/国 SPXS/US

大規模コンステレーション

Loading constellations...